Location: Gouy
(50.0008°N, 3.2556°E)
Time: 13:07:51
(UTC+00:00)

Cosmos 2082 Rocket - Pass Details

Date: 23 May 2024
Orbit: 832 x 853 km, 71.0° (Epoch: 16 June)

Event Time Altitude Azimuth Distance (km) Brightness Sun altitude
Exits shadow 00:07:00 30° 155° (SSE) 1,488 3.0 -19.2°
Maximum altitude 00:09:08 42° 109° (ESE) 1,202 2.9 -19.1°
Drops below altitude 10° 00:14:29 10° 40° (NE) 2,492 5.5 -19.0°
Sets 00:17:03 0° 34° (NNE) 3,431 6.5 -19.0°
